Regional Weather Roundup
Issued by NWS Upton, NY

Current Version | Previous Version | Graphics & Text | Print | Product List | Glossary Off
Versions: 1 2 3 4 5 6 7 8 9 10 11 12 13 14 15 16 17 18 19 20 21 22 23 24 25 26 27

000
ASUS41 KOKX 240707
RWROKX

REGIONAL WEATHER ROUNDUP
NATIONAL WEATHER SERVICE NEW YORK NY
300 AM EDT FRI MAR 24 2017

NOTE: "FAIR" INDICATES FEW OR NO CLOUDS BELOW 12,000 FEET WITH NO
SIGNIFICANT WEATHER AND/OR OBSTRUCTIONS TO VISIBILITY.

NYZ071-072-176-178-NJZ106-104-240800-
NEW YORK CITY METRO AREA

CITY           SKY/WX    TMP DP  RH WIND       PRES   REMARKS
Central Park   PTCLDY    39  12  33 SW5       30.54R
Wall St Helipt CLOUDY    37  20  50 W8        30.54S WCI  31
LaGuardia APRT PTCLDY    40  18  41 SW7       30.52S
Kennedy INTL   PTCLDY    35  24  64 SW5       30.54S WCI  31
Breezy Point     N/A     34 N/A N/A SW8         N/A  WCI  27
Newark/Liberty CLOUDY    34  16  47 SW8       30.53R WCI  27
Teterboro      MOCLDY    34  23  64 S3        30.52R
$$

NYZ177-179-078>081-240800-
LONG ISLAND NEW YORK

CITY           SKY/WX    TMP DP  RH WIND       PRES   REMARKS
Jones Beach      N/A     37 N/A N/A SW6         N/A  WCI  33
Matinecock PT  NOT AVBL
Farmingdale    CLEAR     30  23  75 CALM      30.54R
MacArthur/ISP  PTCLDY    27  23  85 E3        30.53R
Shirley        PTCLDY    26  21  81 CALM      30.55R
Westhampton    CLEAR     17   8  67 CALM      30.56R
East Hampton     N/A     19  11  74 CALM      30.54R
Montauk          N/A     30  21  69 CALM      30.54F
$$

NYZ052-065-067-240800-
HUDSON VALLEY

CITY           SKY/WX    TMP DP  RH WIND       PRES   REMARKS
White Plains   PTCLDY    32  23  69 S3        30.50R
Newburgh       CLEAR     27  16  63 CALM      30.49F
Montgomery     MOCLDY    25  16  68 CALM      30.46F
Poughkeepsie   PTCLDY    25  15  66 CALM      30.49F
Albany         CLOUDY    29  10  45 S6        30.47S WCI  23
$$

NJZ001-105-106-008-010-013-015-019>022-104-240800-
NEW JERSEY

CITY           SKY/WX    TMP DP  RH WIND       PRES   REMARKS
Newark/Liberty CLOUDY    34  16  47 SW8       30.53R WCI  27
Teterboro      MOCLDY    34  23  64 S3        30.52R
Caldwell       PTCLDY    27  16  63 CALM      30.52S
Somerville     CLEAR     22  16  78 CALM      30.50F
Linden           N/A     32  16  50 CALM      30.55R
Sussex         PTCLDY    22  16  78 CALM      30.48F
Andover          N/A     22  18  85 CALM      30.49S
Trenton        CLEAR     29  17  61 S3        30.51F
Millville      CLEAR     25  22  88 CALM      30.54F
Atlantic City  PTCLDY    32  25  75 S6        30.55S WCI  26
Wrightstown    CLEAR     28  21  74 SW5       30.51F WCI  23
Toms River     CLEAR     26  19  74 SW5       30.55S WCI  20
Belmar         CLEAR     29  17  61 SW7       30.55R WCI  22
$$

PAZ047>061-062-071-240800-
EASTERN PENNSYLVANIA

CITY           SKY/WX    TMP DP  RH WIND       PRES   REMARKS
Philadelphia   PTCLDY    33  26  75 S6        30.53F WCI  28
Allentown      CLOUDY    26  17  68 CALM      30.48F
Scranton       CLOUDY    30  12  47 VRB5      30.39F WCI  25
$$

CTZ002-004>006-009-010-012-RIZ004-006-007-MAZ004-011-015-240800-
SOUTHERN NEW ENGLAND
 IN CT

CITY           SKY/WX    TMP DP  RH WIND       PRES   REMARKS
Bradley INTL   CLOUDY    25  15  66 W3        30.52R
Hartford       PTCLDY    27  14  58 CALM      30.54R
Danbury        PTCLDY    25  15  66 CALM      30.51S
Wtrbury/Oxford CLOUDY    28   9  43 CALM      30.49S
Bridgeport     CLOUDY    31  20  63 CALM      30.53R
Meriden        CLOUDY    26  14  60 CALM      30.53R
New Haven      PTCLDY    26  18  71 CALM      30.53R
Chester          N/A     30  19  64 W3        30.52R
Groton         CLEAR     24  15  68 NE5       30.53S WCI  18
Wilimantic     CLOUDY    24  15  68 CALM      30.53R

 IN RI

CITY           SKY/WX    TMP DP  RH WIND       PRES   REMARKS
Providence     CLEAR     25  11  55 CALM      30.53S
Block Island   CLEAR     29  15  56 SW6       30.54S WCI  23
Westerly       CLEAR     22  15  75 CALM      30.55R
 IN MA

CITY           SKY/WX    TMP DP  RH WIND       PRES   REMARKS
Boston         CLEAR     31   7  36 CALM      30.52F
Worcester      CLOUDY    26   4  38 W6        30.45F WCI  19
Westfield      CLOUDY    25  13  60 CALM      30.51R
Provincetown   CLEAR     33  16  49 VRB6      30.52F WCI  28
Nantucket      CLEAR     31  14  49 NW6       30.52F WCI  25
$$

ANZ330-335-338-340-345-350-353-355-240800-
COASTAL MARINE OBSERVATIONS


STATION/POSITION TIME  SKY/WX   TEMP    WIND        PRES    VSBY  WAVE
                                AIR SEA DIR/SP/G                  HT/PER
                 (UTC)          (F)     (DEG/KT/KT) (MB)    (MI)  (FT/S)
NY HARB ENTRANCE 0550            40 41  230/ 12/ 14 1033.9          2/ 4
20 S FIRE ISLAND 0650            40 40  220/ 10/ 12 1034.3          2/ 4
GREAT SOUTH BAY  NOT AVBL
23 SSW MONTAUK P 0550            38 42              1035.0          2/ 4
15 E BARNEGAT LI 0630               42                N/A           2/ 3
HUDSON CANYON    0550            40 44  220/  6/  8 1035.2          2/10
KINGS POINT      0648            37 38              1033.5
EXECUTION ROCKS  NOT AVBL
CENTRAL LI SOUND 0630            36     220/  6/  8   N/A           1
EASTERN LI SOUND NOT AVBL
ROBBINS REEF     0648            36     250/ 13/ 17 1034.1
$$


>>>>>>>>>>>>>>>>>>>>>>>>>>>> KEY <<<<<<<<<<<<<<<<<<<<<<<<<<<
>                                                          <
>     SKY/WX - Sky Condition/Present Weather               <
>     TMP    - Temperature in Fahrenheit                   <
>     DP     - Dew Point in Fahrenheit                     <
>     RH     - Relative Humidity in Percent                <
>     WIND   - Direction (from) and Speed in MPH           <
>     PRES   - Mean Sea Level Pressure (inches of Hg)      <
>     WCI    - Wind Chill Index                            <
>     VSB    - VISIBILITY IN MILES                         <
>     HX     - HEAT INDEX                                  <
>     TC     - TEMPERATURE IN CELSIUS                      <
>     VRB    - VARIABLE WIND DIRECTION                     <
>                                                          <
>>>>>>>>>>>>>>>>>>>>>>>>>>>> KEY <<<<<<<<<<<<<<<<<<<<<<<<<<<




USA.gov is the U.S. government's official web portal to all federal, state and local government web resources and services.